GFSCGP_sfc_wetblb_276.txt.gz
Wetbulb
36.06 33.75 27.65 29.27 30.44 31.01 29.88 27.08 26.01 30.65 34.90 30.66 29.60 29.97 32.39 34.59 32.29 30.68 30.61 32.10 33.15 34.09 36.76 37.26 37.19 36.99 37.14 37.50 37.85 38.59 39.19 40.91 42.59 42.97 43.32 44.12 45.02 46.93 48.63 51.98 53.80 55.33 58.78 59.52
33.51 29.68 33.19 34.40 33.78 30.72 28.77 26.05 24.92 30.07 33.44 30.38 28.12 27.92 32.24 34.55 32.27 31.09 30.32 30.86 32.22 33.65 34.45 35.07 34.93 35.22 35.19 35.36 36.35 37.05 37.94 39.13 40.01 40.97 43.10 45.22 45.15 47.09 48.55 50.03 52.99 54.09 54.70 56.28
26.94 32.40 34.63 32.77 29.57 27.70 27.57 24.88 23.43 24.40 28.92 29.87 27.27 24.34 29.03 32.43 33.47 33.51 32.93 32.69 33.16 32.78 31.86 32.39 33.16 33.09 33.52 33.45 34.70 36.75 38.96 39.10 40.70 42.46 43.26 45.08 45.75 46.39 46.99 49.79 51.16 52.89 54.82 55.30
30.20 34.43 31.69 29.32 27.28 29.17 20.24 31.17 28.77 26.24 18.84 14.12 26.71 12.38 24.94 29.50 30.40 31.90 31.07 30.60 31.69 30.84 31.60 31.84 31.69 31.73 32.29 33.76 35.87 36.53 37.74 38.77 40.75 42.70 43.47 43.56 43.40 43.23 45.96 47.63 50.49 51.43 55.24 55.37
27.91 28.28 27.82 26.42 29.90 30.82 25.80 31.09 27.76 26.49 16.85 18.00 20.30 13.30 22.12 28.69 26.46 26.95 28.82 31.07 30.72 30.25 30.12 29.63 29.97 30.95 31.89 33.87 34.20 35.74 36.89 38.22 40.13 42.12 43.84 44.46 43.52 44.39 46.89 47.44 49.42 51.07 53.60 54.45
29.49 33.50 29.55 30.46 32.00 32.27 32.75 27.29 27.10 24.29 17.89 13.35 14.17 13.10 16.89 21.40 23.24 25.73 29.00 29.53 29.85 29.18 28.80 28.98 30.02 30.83 30.87 32.75 33.72 35.30 36.30 37.16 39.29 41.81 44.97 44.40 43.32 44.23 45.69 46.91 48.17 50.14 51.34 52.47
28.03 28.00 30.56 31.60 27.58 31.41 27.40 19.37 12.03 9.51 10.34 10.91 14.00 15.26 18.69 24.45 26.37 26.93 26.91 28.25 28.27 28.30 27.25 26.95 27.12 28.54 29.80 31.02 32.49 34.47 35.34 35.28 38.10 40.31 42.54 44.62 43.82 45.25 45.92 47.08 47.89 48.31 49.13 50.36
16.56 16.13 24.07 30.81 27.25 22.72 23.88 18.21 10.18 0.39 7.34 12.52 14.79 10.14 20.25 26.94 29.40 28.68 28.92 28.74 28.26 26.74 26.81 26.29 26.87 27.38 27.94 29.93 31.71 32.71 33.15 35.03 36.75 38.66 40.70 43.40 44.78 46.11 46.91 47.32 47.63 47.76 48.59 49.62
17.53 19.56 27.99 29.22 30.58 28.00 23.73 17.72 23.00 10.29 10.71 11.30 12.89 19.41 25.27 26.37 21.89 26.10 26.49 26.80 25.54 25.68 25.98 26.36 26.87 27.18 27.85 29.65 31.17 31.53 32.25 34.35 35.89 37.27 38.86 40.67 42.49 43.61 43.46 44.50 47.08 47.49 48.50 49.22
23.13 13.83 24.37 26.73 29.40 28.07 24.07 25.62 11.69 12.82 5.07 3.07 10.32 10.88 15.79 13.47 14.87 20.80 23.03 23.07 24.17 25.51 25.55 25.90 26.39 26.64 28.00 29.46 31.20 31.92 32.43 33.16 34.59 35.80 36.84 38.52 40.04 41.63 43.00 43.48 44.11 45.85 48.21 46.68
24.85 17.07 19.61 23.91 17.58 19.82 20.69 16.36 15.99 14.88 16.09 10.73 6.91 11.45 17.74 14.46 14.58 18.08 19.56 24.38 22.54 23.85 24.67 25.36 26.25 26.95 27.66 28.29 28.85 30.08 30.68 31.37 32.74 34.28 35.33 36.58 37.76 39.21 40.61 41.88 42.66 44.23 45.13 43.26
26.81 23.69 13.03 17.39 29.14 28.95 25.87 19.38 21.66 10.06 7.75 16.97 16.50 15.42 22.42 18.53 17.46 15.30 18.59 23.33 25.14 25.50 26.14 25.74 25.38 25.99 26.01 25.85 27.22 28.09 29.14 30.26 31.65 33.13 34.35 35.10 36.31 36.85 38.11 39.42 40.98 41.86 41.49 41.46
26.34 17.81 9.28 16.80 20.93 23.73 18.50 24.14 24.59 19.71 20.12 10.72 9.89 13.18 19.54 18.48 16.56 15.55 17.73 19.20 24.03 25.53 26.08 25.58 24.41 23.76 24.34 24.76 25.53 26.76 28.45 29.49 30.41 31.93 32.84 33.27 33.47 34.65 35.66 36.99 38.43 39.29 39.14 39.08
29.52 23.67 14.04 11.43 12.22 14.60 14.83 20.50 23.54 20.19 8.68 12.72 16.10 19.21 24.74 19.30 16.82 14.59 16.85 17.85 20.79 25.50 25.41 23.83 23.41 23.56 23.31 23.06 23.60 24.94 27.19 29.09 29.72 31.02 31.09 31.24 31.88 33.30 34.37 35.48 36.29 37.26 37.20 36.42
25.62 12.49 19.55 20.78 20.24 20.10 19.88 18.48 18.31 16.14 19.25 9.74 18.23 11.75 22.42 24.15 24.03 14.98 17.49 16.00 20.57 20.68 22.00 22.77 22.43 22.38 22.40 22.26 22.34 24.23 25.70 27.32 28.60 28.99 29.58 30.06 31.42 32.64 33.14 33.37 33.91 34.00 34.12 34.09
25.79 11.29 13.58 10.60 20.00 20.65 16.21 19.67 19.32 18.01 17.13 15.61 19.04 18.23 25.39 23.85 14.35 14.42 15.39 15.77 16.59 19.88 19.67 20.52 20.96 20.53 20.49 20.94 21.48 23.65 23.47 25.55 27.60 27.61 27.27 29.45 29.97 30.96 31.57 32.06 32.26 32.34 32.37 32.68
19.97 14.34 7.35 7.87 16.15 13.06 8.91 11.82 14.49 15.70 15.81 14.25 10.60 17.48 14.10 13.76 12.94 13.19 13.19 13.16 14.74 17.27 16.78 19.28 18.83 19.29 19.89 20.22 21.61 22.46 23.17 25.61 26.11 26.92 27.24 27.32 28.50 28.79 29.73 30.68 31.09 30.62 30.96 31.69
14.75 13.95 10.41 5.70 8.52 2.80 17.44 24.81 20.90 17.01 19.82 21.34 19.73 18.47 14.79 13.37 13.54 16.25 14.25 14.96 13.69 15.40 12.51 17.62 18.59 19.12 19.30 20.80 21.56 24.03 23.55 23.59 24.54 25.14 26.70 28.33 28.45 28.46 28.91 29.34 29.68 29.83 30.00 29.77
23.52 16.83 7.29 2.49 1.50 14.51 21.11 20.20 19.37 18.61 19.19 25.81 24.54 22.62 19.75 19.24 22.47 21.02 22.12 19.84 17.66 17.11 15.86 15.77 18.45 19.11 18.92 18.89 21.37 23.49 21.81 21.86 23.17 24.11 25.17 27.00 28.48 28.41 28.68 28.26 28.65 29.40 29.21 29.16
23.66 21.81 13.19 3.92 -2.84 0.98 20.09 21.35 23.67 22.63 14.39 25.42 26.03 26.07 23.68 22.32 15.35 18.59 25.24 23.34 21.86 21.25 21.60 20.36 20.94 19.86 17.91 18.11 20.85 22.38 20.07 19.56 20.37 23.84 25.11 26.79 28.24 28.51 28.50 29.04 29.17 29.92 30.33 30.22
14.72 15.65 12.08 12.39 2.58 12.55 23.83 24.20 23.87 10.95 19.36 23.99 24.90 24.82 22.75 20.34 21.60 22.02 22.55 20.67 21.40 20.72 20.21 20.30 19.58 18.07 16.60 17.52 19.65 19.29 18.40 17.07 19.82 24.22 26.08 26.60 28.11 28.96 29.51 29.48 29.44 29.08 28.85 28.66
14.20 12.07 10.45 13.26 5.74 8.79 24.17 21.68 20.55 24.84 22.74 24.21 23.84 23.62 23.70 22.80 22.32 21.72 21.70 21.87 21.37 19.68 18.46 18.98 18.42 17.65 16.31 16.23 17.01 17.16 15.29 16.75 19.75 23.13 25.14 25.62 26.76 28.53 29.23 29.21 29.30 29.06 28.03 26.87
11.13 19.55 15.09 17.58 17.30 25.48 24.15 24.24 26.15 25.53 25.23 24.02 24.62 24.15 24.22 22.68 20.99 20.84 20.22 20.10 18.39 18.19 19.54 17.81 16.16 17.27 15.36 14.82 14.28 14.27 13.51 15.59 18.31 21.55 23.11 24.75 26.15 26.83 27.43 26.96 27.40 26.98 26.96 26.26
15.62 20.02 16.41 15.10 22.81 23.87 24.65 25.18 25.49 26.16 25.34 25.73 25.76 24.76 23.88 21.26 20.23 19.38 17.31 17.29 16.40 14.24 13.25 12.31 11.87 12.27 12.52 11.77 13.04 10.73 12.22 13.82 17.08 18.63 21.11 23.92 25.29 25.68 25.88 25.73 25.55 25.32 25.45 24.55
19.10 18.46 17.72 18.95 23.16 23.46 25.08 25.51 25.15 24.89 24.89 22.50 21.03 22.54 22.77 22.34 21.88 21.33 18.98 17.63 16.30 12.40 9.77 9.25 8.93 9.17 8.36 6.94 6.39 5.70 9.35 11.32 15.68 16.50 19.01 23.21 24.81 24.81 24.00 24.48 23.15 23.11 24.40 24.78
18.98 22.74 20.38 22.63 30.30 27.11 28.44 21.52 21.71 21.28 21.88 23.43 20.98 16.86 17.77 22.11 21.71 20.88 18.60 18.52 16.40 13.81 11.45 10.26 9.91 9.53 8.34 7.37 6.43 5.37 7.28 10.50 12.09 15.68 16.06 20.33 22.88 23.56 23.64 21.99 21.50 25.76 25.37 25.58

GFSCGP_sfc_wetblb_279.txt.gz
Wetbulb
33.19 26.63 18.01 24.48 26.59 27.87 26.46 23.68 21.92 26.92 32.71 28.12 27.84 28.16 30.53 32.83 30.90 29.57 28.75 28.75 30.95 31.98 34.71 34.90 35.13 34.61 34.78 34.86 35.21 35.90 35.99 36.93 37.82 38.02 37.69 38.48 39.34 43.42 45.25 46.74 48.98 51.03 52.98 54.48
27.75 22.03 29.55 32.17 31.35 27.68 25.10 18.55 18.56 26.35 30.83 28.44 25.87 25.56 30.19 31.76 29.90 30.13 29.55 28.09 30.23 30.88 31.61 33.24 33.51 33.25 32.50 32.82 33.76 34.62 35.49 36.71 38.93 38.47 38.94 40.08 40.44 42.12 44.66 46.36 48.09 51.11 52.70 54.36
21.74 29.21 33.36 30.82 27.27 24.67 23.41 19.15 19.62 22.11 25.81 26.37 23.90 20.45 26.54 30.06 31.07 31.67 31.05 29.68 29.75 30.03 29.51 30.73 31.73 31.09 30.80 30.89 32.03 33.94 35.57 36.72 37.66 38.11 40.06 41.74 42.42 42.78 43.62 44.82 45.79 49.98 52.60 53.54
25.64 31.78 29.83 27.31 25.54 25.50 15.70 28.17 26.54 24.46 15.53 9.52 23.93 8.95 21.90 26.38 28.33 30.22 28.74 27.49 27.97 27.32 29.32 30.04 30.03 29.63 29.84 30.82 31.82 32.94 35.28 36.45 37.24 38.50 39.19 39.97 40.36 40.50 42.71 44.35 46.52 50.60 52.47 52.87
22.49 26.20 26.31 23.77 27.37 28.24 23.60 29.03 26.38 25.09 10.81 15.83 15.28 9.85 19.46 25.45 25.07 24.57 26.34 28.23 27.80 27.59 27.77 28.11 28.59 29.35 29.99 30.66 30.63 33.09 35.05 35.87 37.36 37.80 39.20 40.01 41.04 43.00 43.91 44.56 44.75 47.80 50.21 52.84
24.37 31.14 27.20 27.66 29.94 29.48 30.76 23.72 22.77 20.42 11.26 4.49 10.43 10.61 15.98 19.92 22.83 23.30 26.04 26.91 27.89 27.32 27.93 28.00 28.76 29.13 28.82 29.63 30.11 31.32 32.27 34.41 35.44 36.01 38.75 39.82 41.00 44.16 43.12 43.65 44.88 47.87 49.78 51.77
23.04 25.38 27.89 29.65 25.47 29.15 23.29 11.79 2.44 3.51 3.71 7.53 7.71 12.72 17.37 22.75 24.50 24.29 24.78 25.76 26.56 27.73 26.53 26.37 26.26 26.60 27.21 27.66 28.67 30.49 32.30 31.63 33.59 35.69 37.71 39.19 41.97 43.86 42.63 42.95 45.26 47.01 48.71 50.83
9.34 12.14 19.06 29.30 25.51 18.79 21.12 13.56 5.45 -3.96 2.51 6.41 6.85 8.11 17.40 25.30 26.67 26.50 26.69 26.53 27.14 26.27 26.53 26.29 26.50 26.42 26.60 27.10 28.32 30.24 30.69 31.08 33.18 35.45 36.61 38.33 41.67 43.68 44.88 45.50 45.94 47.10 46.63 48.32
10.40 14.52 26.15 27.82 29.08 24.98 18.28 11.20 21.18 4.00 1.84 6.20 7.44 13.89 23.34 25.15 18.72 22.81 24.26 25.34 24.39 25.16 25.42 25.59 26.20 26.55 26.32 26.89 27.95 29.36 29.97 30.97 32.31 33.81 35.75 36.53 39.35 40.55 42.33 42.52 42.86 44.53 48.09 49.46
20.28 9.16 18.69 24.90 28.40 25.83 19.42 23.76 8.69 6.49 -1.27 -2.42 4.72 3.28 15.33 13.93 13.72 17.39 21.19 20.73 21.85 22.95 23.84 25.60 25.81 25.96 26.33 26.81 27.07 28.44 30.58 30.29 31.89 33.41 34.94 36.38 37.35 38.91 40.53 42.29 42.42 43.28 45.03 46.83
19.88 11.13 14.66 22.88 13.15 14.38 13.76 11.68 11.91 10.86 12.73 1.97 0.15 7.91 15.18 14.79 12.89 13.96 17.78 20.60 19.68 19.41 21.48 23.89 25.94 26.30 26.42 26.16 25.96 26.71 28.12 29.36 30.75 32.40 33.52 34.60 35.96 37.64 38.70 40.22 41.47 42.78 43.52 43.47
25.67 19.62 11.15 14.54 25.45 27.27 21.81 15.70 18.41 7.99 2.53 10.60 12.16 13.68 13.47 13.76 14.76 14.56 18.62 19.23 20.19 16.34 20.87 24.91 25.54 25.59 25.21 24.58 24.44 24.77 26.26 28.25 29.58 30.42 32.06 33.32 34.58 35.39 36.62 37.94 39.36 40.93 40.85 41.24
25.37 11.86 3.12 12.47 18.44 22.20 16.43 21.38 21.93 14.60 18.48 12.15 4.03 9.67 14.34 8.90 10.51 14.68 16.24 18.61 16.32 17.40 19.16 23.94 24.25 23.94 24.32 23.86 23.75 24.02 25.30 27.01 29.18 30.22 31.27 31.92 32.53 33.53 34.79 36.12 37.71 38.90 39.16 38.65
29.17 22.54 12.10 10.05 10.06 9.35 12.66 19.23 22.70 17.08 3.45 8.04 11.51 15.37 22.49 21.90 13.29 13.44 14.54 14.04 10.95 11.82 16.67 20.68 21.76 22.36 22.62 23.08 23.08 23.12 23.90 25.67 27.58 29.27 30.03 30.43 31.20 32.72 33.98 35.03 36.09 36.85 37.33 36.62
23.68 13.15 18.35 18.59 17.71 15.09 18.71 17.12 16.18 15.39 17.25 9.40 17.26 8.90 19.02 22.82 18.80 21.92 15.12 6.65 14.12 11.99 13.82 16.50 17.72 20.13 20.34 20.42 21.60 22.93 23.54 24.53 26.31 27.69 28.16 29.07 30.66 32.16 33.03 33.35 33.70 33.98 34.25 33.93
25.68 9.67 11.43 7.88 19.15 19.29 14.89 18.73 17.50 16.35 17.06 15.50 18.33 17.40 25.24 25.47 7.92 10.64 12.79 5.98 12.55 6.24 8.91 13.03 12.82 17.75 18.13 19.11 20.07 22.07 23.17 23.42 25.39 25.86 27.08 28.55 29.30 30.39 31.14 31.77 31.99 32.29 32.20 32.49
20.03 12.28 6.14 3.84 14.62 11.00 9.88 11.02 11.64 11.30 9.11 10.89 7.21 15.39 5.29 10.76 9.24 8.66 10.48 8.65 11.41 6.84 6.34 11.51 9.46 14.06 16.08 17.99 20.21 21.66 22.83 23.76 24.81 25.17 26.33 28.17 28.32 28.80 29.75 30.27 30.34 30.43 30.88 31.57
13.16 12.53 5.15 2.74 3.20 -0.53 19.68 21.58 18.09 15.89 17.05 14.94 13.30 15.60 14.36 13.66 9.63 11.00 6.81 12.36 12.53 5.63 7.33 10.06 9.94 9.19 13.65 13.41 19.30 22.95 22.97 23.03 24.11 24.90 25.98 27.61 28.48 28.47 29.17 29.29 29.09 29.45 29.85 29.72
22.27 14.63 5.72 1.75 -8.44 9.65 21.09 20.16 19.90 18.99 19.12 22.04 20.66 22.31 16.27 15.50 20.52 17.95 17.61 17.69 11.88 11.21 12.85 11.03 11.02 10.12 14.10 14.02 18.31 22.33 21.48 22.53 22.82 23.82 25.82 27.67 28.70 28.70 29.00 28.76 28.99 29.55 29.41 29.34
23.44 21.63 12.60 -1.61 -2.70 -2.66 20.37 21.86 22.86 22.35 13.18 23.51 24.19 23.94 23.70 21.19 14.48 15.81 23.79 23.21 21.14 20.65 20.19 18.99 19.81 18.26 16.56 17.34 19.74 21.44 19.72 20.70 20.97 22.97 26.01 27.92 29.41 28.89 28.18 28.60 28.66 29.53 29.64 29.28
10.23 12.91 12.80 12.84 3.14 7.46 20.72 23.65 23.04 10.35 19.05 24.72 25.38 24.44 22.57 19.99 20.38 21.67 22.81 20.67 21.28 20.45 20.00 18.79 18.61 17.07 15.64 16.84 18.59 18.50 18.33 17.74 19.94 23.60 26.55 27.27 28.62 29.30 29.56 28.99 28.90 28.41 28.03 28.08
10.09 7.94 5.88 7.10 2.54 4.74 22.96 22.24 19.74 23.85 23.74 24.24 23.79 23.55 23.54 21.96 21.22 20.79 20.49 20.70 20.34 19.15 18.61 18.43 18.00 16.83 15.52 15.80 16.42 15.91 14.90 16.38 19.53 22.76 24.92 25.73 26.55 27.76 28.49 28.09 27.99 27.77 27.04 26.14
10.45 15.61 11.42 14.81 14.30 23.54 24.18 24.81 27.51 25.74 25.57 24.57 24.01 23.93 23.27 22.18 20.05 19.72 19.39 19.37 18.69 18.53 19.08 16.97 15.88 15.96 13.85 14.00 13.68 13.77 12.57 15.02 17.70 20.13 22.02 23.74 24.96 25.64 26.07 25.58 26.10 25.60 25.99 24.67
15.08 18.39 15.97 14.81 22.65 23.58 25.92 27.23 26.13 26.43 26.53 26.34 25.49 24.63 22.63 21.03 18.30 18.28 15.60 16.54 16.37 14.58 12.52 10.81 10.38 11.80 11.28 10.88 12.68 10.09 11.11 13.59 15.77 18.12 22.58 23.06 23.03 23.00 22.91 23.64 23.86 23.38 22.45 21.66
18.30 18.42 16.60 15.37 21.74 24.16 24.84 25.37 26.39 26.36 26.35 22.32 19.95 22.36 22.71 21.20 19.69 20.23 18.25 16.80 15.96 13.67 9.39 7.75 9.06 8.51 6.86 6.07 5.88 3.88 9.08 10.24 14.46 17.48 21.16 23.52 21.87 21.36 22.68 22.84 21.98 22.64 23.57 21.72
17.58 21.72 19.55 22.72 30.77 28.49 29.30 29.82 21.25 23.02 19.81 22.00 20.63 16.41 15.30 20.90 21.32 19.85 18.39 18.47 16.81 14.36 11.59 8.99 8.79 7.97 6.86 5.53 4.85 4.73 6.31 9.68 11.56 14.47 15.71 21.03 23.03 22.26 20.18 19.72 21.10 25.62 25.49 25.69

GFSCGP_sfc_wetblb_285.txt.gz
Wetbulb
31.61 24.84 19.23 23.81 25.54 25.27 23.68 22.07 20.80 23.79 28.33 25.77 24.28 24.39 27.87 30.82 28.26 27.17 27.07 27.74 29.34 29.39 32.08 32.57 32.55 32.25 32.08 32.30 32.34 32.42 32.33 32.89 33.53 32.80 33.00 33.38 33.63 36.90 37.75 38.98 40.66 41.34 42.29 44.13
24.00 19.78 27.06 29.57 28.41 26.84 24.31 17.03 16.84 24.34 26.88 25.53 23.40 23.58 27.67 28.65 27.83 27.52 26.85 26.53 28.08 28.35 29.59 31.24 31.03 31.11 30.77 30.69 30.99 31.19 31.67 32.16 32.50 32.83 33.85 34.86 36.24 36.74 37.70 39.31 40.70 41.53 42.08 43.20
20.36 26.81 30.95 28.28 26.60 24.27 23.13 17.62 17.28 21.60 24.92 23.81 21.26 19.66 22.08 26.03 27.58 27.71 27.52 27.02 26.20 27.34 28.07 28.86 30.27 29.76 29.51 29.29 29.75 30.60 30.94 31.21 31.81 32.85 34.10 34.76 36.27 36.36 36.30 37.92 40.02 41.83 43.12 43.98
23.40 30.29 28.21 26.92 25.29 25.08 15.67 25.74 25.61 23.89 15.02 8.60 21.69 9.93 20.10 23.02 25.61 27.05 26.91 26.15 25.52 26.08 27.87 28.80 29.20 28.95 28.77 29.65 30.06 29.82 30.27 30.48 31.47 32.60 32.25 33.52 32.85 32.47 35.05 37.23 39.49 40.97 43.16 43.43
22.14 26.32 25.99 23.63 26.64 26.70 23.43 26.65 24.79 21.57 7.90 14.62 12.06 8.39 17.36 21.45 22.92 25.08 26.39 26.03 25.46 26.26 26.79 27.16 27.75 28.75 29.44 29.62 28.75 29.03 29.19 29.67 30.95 32.26 33.56 31.93 32.31 34.32 36.12 37.25 38.10 39.58 42.30 43.43
22.95 29.34 26.90 26.50 27.61 27.47 26.58 20.81 18.21 16.21 6.96 2.96 6.33 8.89 14.67 18.27 21.31 22.76 24.76 25.79 25.73 26.13 26.82 27.05 27.32 27.98 28.41 28.92 28.31 28.23 28.10 28.96 30.01 30.77 32.30 31.75 32.02 33.65 34.82 35.90 35.78 38.92 40.92 43.26
21.28 24.35 26.85 27.54 24.37 26.18 21.76 8.28 2.52 3.55 0.11 4.71 0.90 9.16 16.41 21.13 23.48 24.16 24.98 25.14 24.94 25.86 25.59 25.50 25.09 25.88 27.47 27.95 28.06 27.42 27.52 26.78 28.10 28.98 31.29 32.00 32.58 33.98 34.17 35.49 35.97 38.42 42.73 43.02
8.51 13.30 17.90 27.74 24.33 17.14 19.53 10.77 5.22 0.64 0.30 3.41 3.61 6.70 15.86 22.37 25.26 25.09 25.09 24.84 25.64 25.32 25.28 24.43 25.02 25.36 26.63 27.40 27.24 26.53 26.29 25.67 26.35 27.76 29.27 30.53 32.74 34.03 35.24 35.61 36.37 37.37 43.09 43.53
10.44 13.13 25.15 27.29 28.28 23.60 15.48 9.73 17.07 1.73 -2.90 -0.21 3.76 10.67 20.14 22.97 18.76 22.65 22.70 22.82 22.78 23.84 24.13 23.27 24.26 24.14 25.16 25.94 26.38 26.16 25.61 25.37 25.52 26.25 28.50 29.80 31.42 33.23 34.09 35.63 35.81 38.38 44.42 46.26
18.42 10.94 18.35 24.35 27.25 24.00 16.66 20.99 9.36 6.12 -1.62 -5.38 -0.28 -4.08 10.63 12.08 15.60 17.73 20.89 21.44 21.94 22.30 22.14 22.08 22.76 23.27 24.66 25.63 26.26 25.84 25.88 24.81 25.19 25.94 27.48 29.87 30.50 32.70 34.06 34.79 34.98 39.22 42.35 44.04
17.00 11.37 13.87 22.82 14.05 13.51 18.90 9.29 11.28 8.19 9.78 0.16 -3.16 5.57 10.97 13.63 13.32 13.91 16.90 19.81 19.46 19.37 18.70 18.84 19.58 20.90 23.25 24.79 24.89 25.03 24.92 24.34 24.85 25.75 26.50 28.60 30.71 33.09 34.12 34.00 36.20 38.42 40.07 41.82
24.20 17.97 7.57 14.35 20.98 22.19 19.34 12.38 16.71 8.52 2.32 5.05 8.08 10.53 15.04 12.38 7.46 3.44 14.83 17.98 19.37 16.20 17.43 15.31 16.71 19.62 21.33 21.38 22.88 23.45 24.24 23.87 25.13 25.26 26.63 28.29 30.97 32.76 33.78 34.99 36.45 38.07 39.36 40.74
25.58 11.05 4.07 14.32 17.49 20.51 16.17 20.26 19.96 14.66 15.60 6.41 4.26 12.35 8.89 3.08 10.00 10.62 11.20 18.36 18.46 16.90 15.52 10.65 14.16 15.83 17.50 18.72 21.01 22.68 23.21 23.96 24.98 25.02 26.08 27.50 29.27 31.29 32.91 34.40 35.72 37.12 38.49 38.41
29.43 19.99 12.65 12.81 12.99 9.09 13.39 19.22 22.52 20.29 6.90 12.64 13.78 18.06 23.28 24.90 23.15 19.66 11.12 14.19 14.50 11.71 11.94 4.96 8.36 10.45 13.59 16.31 18.76 22.03 22.91 23.75 24.65 24.40 25.12 27.17 29.04 30.66 33.07 34.52 34.75 34.96 35.22 34.99
23.85 9.67 16.05 15.84 15.83 12.00 17.77 17.82 19.18 17.61 19.76 12.44 19.15 10.82 20.95 24.26 23.09 23.55 10.26 9.28 9.02 11.67 11.46 2.57 3.01 7.67 8.70 14.40 17.45 20.67 22.06 22.83 23.76 23.74 25.21 26.94 29.11 30.73 32.32 32.98 33.50 33.44 33.20 33.10
24.70 10.48 10.02 5.12 18.96 18.72 14.66 18.34 19.40 18.43 19.42 18.21 18.93 17.73 25.76 26.77 23.61 12.40 15.10 6.15 11.04 8.11 10.67 2.82 3.14 6.94 8.35 11.99 13.08 17.79 21.15 23.32 23.56 24.21 25.24 27.37 28.79 29.47 30.03 31.03 31.58 31.86 31.64 31.52
21.53 15.32 10.21 6.47 10.63 8.51 10.53 16.22 16.99 13.24 9.19 16.87 13.22 19.91 21.35 19.77 12.38 7.04 13.01 6.47 11.86 10.74 9.79 3.24 6.13 6.08 5.67 8.47 10.68 16.01 20.37 22.51 22.92 24.22 26.59 27.59 28.41 28.60 29.08 29.80 30.10 30.12 30.44 30.84
19.23 17.54 15.72 6.07 2.89 -0.84 19.58 19.87 17.11 15.15 18.08 14.59 14.22 16.49 11.19 15.76 11.04 13.27 12.47 9.87 12.71 9.32 8.07 3.05 5.48 2.97 3.68 4.22 10.19 14.80 22.19 23.06 23.29 23.44 25.59 27.15 27.35 27.63 28.76 29.14 29.17 29.55 30.02 29.80
24.78 21.14 12.98 4.61 -8.79 10.18 20.56 18.77 16.96 16.26 18.88 20.67 19.11 21.93 22.03 13.60 18.95 19.24 14.79 12.06 14.09 10.23 9.69 5.26 4.79 4.37 4.78 8.05 12.51 14.47 19.38 23.02 23.04 22.64 25.38 26.91 26.62 25.92 26.49 26.71 27.27 28.56 29.39 29.69
23.52 24.15 17.70 -0.74 2.74 -0.41 19.36 19.12 21.67 21.22 13.45 21.60 21.14 21.70 21.10 21.18 15.71 19.27 20.74 20.68 19.89 19.52 18.50 18.50 17.84 16.47 15.95 16.26 19.28 19.77 17.12 20.96 21.09 21.86 25.39 26.99 27.57 26.78 26.13 26.08 26.42 27.30 27.34 26.78
12.19 13.19 14.28 8.51 7.97 8.42 19.94 22.17 22.14 10.61 20.56 22.81 22.65 23.28 22.85 21.33 22.54 21.95 23.11 21.77 21.85 20.09 19.04 18.04 17.03 16.27 15.62 16.04 18.23 19.53 18.42 17.36 19.84 23.63 26.03 26.06 26.77 27.21 27.09 26.54 26.81 26.43 25.92 25.80
10.95 8.24 8.33 10.47 5.51 5.18 21.32 19.58 19.25 25.49 24.58 24.58 23.82 24.80 24.39 23.95 23.66 21.07 22.57 21.58 19.40 18.31 17.77 18.81 16.94 16.45 15.32 15.31 16.53 17.31 16.69 16.42 19.93 23.20 23.68 23.68 24.49 25.89 26.28 25.56 25.66 25.62 25.08 23.84
11.67 15.91 11.65 14.33 14.59 22.81 21.95 24.01 27.48 26.56 26.33 25.80 24.97 26.78 25.62 24.06 23.57 21.62 19.99 19.86 17.82 16.97 18.04 16.56 15.06 14.58 12.89 12.72 13.13 14.96 13.28 14.85 17.78 20.40 20.16 21.06 21.97 23.51 24.40 23.34 23.12 22.50 22.48 21.67
13.79 16.43 14.71 14.52 22.27 21.79 24.35 25.63 25.70 26.47 25.48 28.37 27.25 26.65 25.08 23.51 21.40 20.74 17.73 16.27 15.38 13.57 14.60 10.08 10.01 10.33 10.74 10.40 12.19 9.73 9.77 11.91 14.36 14.65 16.25 18.96 20.08 20.86 21.44 22.18 21.37 20.20 19.05 18.52
18.17 18.03 14.49 14.58 22.63 20.14 25.44 26.42 28.40 28.10 26.53 25.01 24.73 25.41 25.30 23.90 22.52 21.50 19.04 16.54 15.28 14.09 10.43 8.37 9.82 9.33 8.75 8.00 7.14 3.69 8.04 9.22 20.67 15.58 14.91 15.66 16.51 17.15 19.12 20.70 19.51 19.62 19.24 19.61
17.59 20.89 18.91 22.27 30.48 27.71 29.33 31.74 23.85 25.15 26.60 27.44 25.08 24.20 21.92 22.99 23.79 20.50 20.60 17.62 16.19 14.37 12.45 10.28 10.48 8.75 8.34 7.00 7.41 6.68 6.05 8.89 16.00 14.13 14.22 13.96 14.47 13.71 16.10 16.93 22.11 26.50 26.29 26.37

GFSCGP_sfc_wetblb_291.txt.gz
Wetbulb
31.09 26.25 22.31 24.43 25.78 24.83 23.95 23.32 21.88 24.07 27.67 26.16 24.49 24.16 28.15 30.79 28.08 26.88 27.03 27.88 29.42 30.80 33.92 33.94 34.28 34.11 33.72 33.48 32.92 33.02 32.59 33.25 33.22 32.48 31.67 32.02 31.57 33.15 34.38 36.32 38.13 39.06 40.30 39.99
25.13 21.61 26.83 28.95 28.56 26.71 24.70 18.29 17.63 24.25 27.03 25.90 23.23 23.20 27.36 27.04 26.64 27.83 28.86 29.05 29.12 29.97 30.84 32.40 33.03 32.88 32.29 31.89 31.99 31.97 32.37 32.72 32.55 32.43 32.26 32.15 31.95 32.90 34.63 36.12 36.82 38.05 39.64 40.90
22.46 26.73 29.75 28.54 26.72 25.09 23.39 19.38 17.62 21.62 24.88 23.44 20.41 20.18 23.45 27.03 28.70 29.47 29.34 29.12 28.77 29.49 29.91 30.67 31.35 31.78 31.57 30.96 30.99 31.67 31.92 32.21 32.18 32.24 32.19 32.02 32.56 32.86 33.47 35.27 35.17 37.26 38.40 39.03
23.91 29.34 28.49 26.96 25.45 25.35 18.44 25.30 25.37 22.93 15.98 11.75 20.80 11.86 21.24 23.13 24.53 27.77 28.96 27.85 27.91 28.24 29.10 29.79 30.28 30.67 30.89 31.02 30.90 30.88 31.25 31.60 32.07 32.02 30.57 29.75 29.16 28.39 31.15 32.34 34.17 35.15 36.82 37.58
22.96 25.59 25.82 23.40 26.31 26.68 22.84 25.98 24.19 19.63 14.05 12.44 12.69 9.49 19.08 21.98 23.88 24.75 26.54 28.23 27.85 27.86 28.01 28.62 29.59 30.30 30.98 30.41 29.79 29.93 30.16 30.56 30.98 30.78 30.45 29.50 28.38 29.81 31.16 32.87 32.98 34.08 36.26 37.64
22.96 28.17 26.61 26.21 27.36 26.91 25.53 19.70 17.39 13.17 6.72 4.92 5.24 10.00 16.10 20.76 22.64 23.74 26.35 27.02 28.06 28.06 27.97 28.00 28.99 29.69 29.65 29.62 29.33 29.21 29.01 29.66 30.44 30.22 29.73 28.64 27.68 27.92 29.08 30.82 31.20 32.57 34.33 36.26
20.63 23.49 26.26 27.59 24.27 25.80 21.37 10.43 6.32 7.24 4.62 9.03 -0.49 9.39 17.62 22.12 23.08 24.06 25.62 26.36 26.40 26.54 26.53 26.73 27.19 27.49 28.20 28.71 29.04 28.60 28.62 28.15 29.58 29.21 28.78 28.34 27.82 27.76 27.82 29.20 30.75 32.27 33.60 34.83
9.52 14.32 17.93 27.03 23.46 17.28 18.34 11.87 7.51 3.19 4.52 7.32 1.99 6.94 19.57 22.76 24.54 24.41 24.62 24.49 25.64 26.20 27.04 26.52 27.22 27.02 27.26 27.78 27.20 26.47 26.57 26.77 28.44 28.08 27.71 28.17 28.00 27.49 28.81 30.04 30.85 32.14 33.36 34.27
9.89 13.08 23.92 27.08 26.89 22.22 16.33 10.18 15.78 1.81 -5.68 -0.08 5.46 10.48 20.28 23.09 17.46 21.68 22.96 24.27 25.15 25.81 26.17 25.42 25.69 25.75 25.62 25.30 24.71 24.75 25.05 26.18 27.25 27.29 27.46 27.14 27.89 28.34 28.39 29.76 31.48 32.03 33.31 34.74
17.60 11.21 16.92 23.33 25.91 22.95 16.61 19.84 10.26 6.34 2.31 -0.22 4.33 -1.05 14.30 15.70 15.05 14.31 19.24 18.02 20.37 22.42 23.55 23.86 23.62 24.49 24.14 23.19 23.07 23.74 24.66 25.07 26.27 26.83 26.95 27.40 27.87 28.61 29.23 30.16 30.99 32.25 33.25 34.76
15.99 12.51 13.41 22.53 16.17 15.25 16.65 12.72 10.46 10.15 10.17 3.86 -0.54 11.11 12.99 13.71 14.42 15.77 16.82 19.54 18.14 19.30 21.31 20.92 21.77 21.38 21.33 21.34 21.34 22.12 23.67 24.44 25.63 26.62 26.49 26.86 27.49 28.00 29.11 30.33 31.79 32.90 34.14 35.22
22.95 17.26 8.12 12.99 20.31 22.64 20.43 15.35 17.37 11.88 6.60 4.36 7.69 11.42 14.37 14.67 6.87 5.33 16.19 20.43 21.36 17.91 18.97 18.23 18.68 18.83 19.31 19.10 19.63 20.21 22.83 23.42 25.62 25.96 26.39 26.83 27.05 27.53 28.34 30.14 32.14 34.04 35.09 36.98
24.04 11.64 5.35 14.97 17.07 19.80 16.21 19.35 19.21 15.30 15.62 5.91 6.67 14.96 14.67 6.49 9.66 15.53 13.26 20.21 22.81 17.26 17.90 14.69 15.85 16.51 15.87 16.82 17.08 18.65 21.17 23.25 25.01 24.95 25.48 25.83 26.58 28.28 29.81 30.73 32.40 34.68 35.66 35.66
28.92 19.52 13.47 13.78 14.13 10.94 13.12 18.07 19.97 17.61 7.72 12.67 13.52 19.36 24.83 26.63 26.11 24.47 20.90 19.62 17.94 16.23 14.33 11.61 12.46 9.84 12.04 13.35 12.53 15.65 19.12 22.91 23.82 24.06 24.10 25.15 27.14 28.75 30.57 31.60 32.13 33.39 34.53 34.19
26.39 12.68 15.83 15.24 14.85 11.02 14.46 13.28 17.96 15.20 15.52 13.04 20.42 14.80 22.88 26.47 26.68 26.40 18.74 21.91 20.29 18.07 13.41 12.49 6.47 8.36 7.81 9.12 11.01 13.87 17.35 21.75 22.28 22.15 21.31 23.70 26.62 29.14 30.59 31.13 32.01 33.42 33.35 33.08
24.20 15.42 9.65 7.09 17.89 18.09 13.80 17.49 18.03 18.37 18.13 16.04 18.89 17.94 25.68 26.72 25.85 21.09 18.61 16.80 17.34 16.76 13.89 12.98 3.47 6.41 8.40 7.55 8.49 11.63 15.97 18.64 20.66 19.30 19.85 23.57 25.49 26.98 28.06 30.09 31.04 31.62 31.51 31.48
21.53 13.72 7.97 8.55 10.14 8.05 10.18 13.76 17.94 12.64 10.98 16.24 9.54 18.55 7.64 18.90 14.77 14.71 18.27 13.31 15.81 17.40 14.33 12.25 9.05 8.81 7.51 5.41 5.33 8.50 12.25 16.00 17.97 18.34 19.65 23.55 24.88 25.03 26.36 27.81 28.35 29.13 29.84 30.49
20.91 16.06 17.36 8.80 1.89 6.46 19.47 19.02 17.66 14.36 15.99 15.62 14.78 16.15 21.19 19.19 18.32 16.04 15.32 16.42 18.20 15.32 11.44 11.85 7.57 1.78 5.29 1.93 1.08 6.09 11.78 15.06 16.60 18.98 20.12 23.31 24.32 24.53 25.02 26.36 26.55 27.07 27.83 28.28
24.95 21.74 14.84 11.22 -1.61 11.46 20.01 16.98 15.82 15.50 18.19 20.71 19.93 21.88 19.99 16.77 18.02 22.49 18.88 16.90 18.13 13.79 12.58 9.61 4.73 3.55 2.83 4.96 5.99 6.90 12.81 12.57 16.73 20.46 21.03 24.14 24.44 24.47 25.01 25.13 25.58 26.94 27.74 27.88
23.60 25.91 21.58 4.43 1.93 1.98 17.77 18.51 20.04 20.22 14.17 22.62 21.74 22.52 21.31 19.43 19.82 21.70 23.18 21.98 22.59 21.31 19.19 19.33 16.55 15.19 15.88 17.12 18.24 18.75 14.11 14.99 18.93 20.64 22.39 24.52 25.57 26.00 25.31 26.08 26.22 27.30 27.64 27.61
13.49 16.71 16.25 4.33 7.86 8.80 19.29 21.44 20.73 12.32 19.92 22.66 22.51 23.66 21.42 21.41 24.62 26.23 23.14 23.50 23.15 22.51 21.15 19.46 17.93 16.67 16.86 17.28 17.96 19.70 18.81 17.86 18.66 21.39 23.51 24.00 25.80 26.70 26.58 26.55 26.52 26.34 26.32 26.32
11.30 11.07 10.14 5.84 7.48 5.85 20.35 20.12 18.82 25.02 23.30 23.98 22.64 23.64 23.05 23.42 24.15 24.10 23.75 23.27 22.97 22.75 20.54 20.54 17.11 16.73 16.98 16.74 16.76 17.70 17.97 17.38 18.15 20.54 21.48 21.41 22.54 24.98 25.27 24.62 24.66 24.43 24.48 23.88
12.18 18.85 12.86 15.65 14.50 22.16 22.40 24.43 26.64 24.15 24.67 24.86 24.38 25.27 24.70 23.39 22.51 23.69 23.12 23.51 23.15 21.86 21.08 18.15 17.13 15.88 14.69 14.53 15.07 15.77 15.87 15.76 16.09 16.68 16.15 17.99 20.14 22.38 23.04 22.32 22.03 22.09 22.43 22.09
12.06 15.67 15.37 16.82 21.46 20.47 22.43 25.53 25.16 24.13 24.23 26.13 25.38 24.73 23.58 24.05 23.30 21.86 21.81 22.25 21.39 18.56 18.05 14.57 12.89 12.82 13.42 12.06 14.16 13.39 12.85 14.12 13.76 11.79 13.60 15.66 18.16 19.14 18.90 20.50 20.38 19.96 19.24 19.41
19.11 17.88 14.86 17.63 18.53 20.27 24.74 24.41 27.57 27.11 25.63 24.11 24.86 23.61 25.15 23.76 24.01 23.69 24.28 22.37 23.22 20.85 13.93 12.57 14.48 14.47 14.15 11.58 10.99 9.42 11.30 11.81 17.15 15.36 15.07 16.61 17.35 17.97 19.11 19.83 19.76 20.37 19.81 21.09
16.72 16.80 19.01 20.31 24.94 26.12 30.04 28.30 27.65 26.13 25.47 24.88 24.77 25.93 21.84 23.56 24.77 24.37 22.93 24.61 23.44 20.32 13.27 11.97 13.56 12.91 13.36 10.23 10.39 9.61 10.29 11.92 15.07 14.63 14.35 14.72 15.44 15.18 16.80 18.66 22.18 27.27 26.85 26.95